Time,TemperatureF,DewpointF,PressureIn,WindDirection,WindDirectionDegrees,WindSpeedMPH,WindSpeedGustMPH,Humidity,HourlyPrecipIn,Conditions,Clouds,dailyrainin,SoftwareType,DateUTC
2013-06-11 00:02:00,69.0,28.0,-100.00,South,189,14.0,17.0,21,0.00,,,-99.99,,2013-06-11 06:02:00,
2013-06-11 00:12:00,70.0,28.0,-100.00,South,191,16.0,20.0,20,0.00,,,-99.99,,2013-06-11 06:12:00,
2013-06-11 00:22:00,70.0,27.0,-100.00,South,191,18.0,22.0,20,0.00,,,-99.99,,2013-06-11 06:22:00,
2013-06-11 00:32:00,70.0,26.0,-100.00,South,191,17.0,20.0,19,0.00,,,-99.99,,2013-06-11 06:32:00,
2013-06-11 00:42:00,69.0,26.0,-100.00,SSW,192,16.0,19.0,20,0.00,,,-99.99,,2013-06-11 06:42:00,
2013-06-11 00:52:00,70.0,26.0,-100.00,South,191,16.0,20.0,19,0.00,,,-99.99,,2013-06-11 06:52:00,
2013-06-11 01:02:00,69.0,26.0,-100.00,South,188,15.0,20.0,20,0.00,,,-99.99,,2013-06-11 07:02:00,
2013-06-11 01:12:00,67.0,26.0,-100.00,South,186,16.0,19.0,21,0.00,,,-99.99,,2013-06-11 07:12:00,
2013-06-11 01:22:00,68.0,26.0,-100.00,South,186,16.0,19.0,21,0.00,,,-99.99,,2013-06-11 07:22:00,
2013-06-11 01:32:00,67.0,26.0,-100.00,South,188,16.0,19.0,21,0.00,,,-99.99,,2013-06-11 07:32:00,
2013-06-11 01:42:00,67.0,26.0,-100.00,South,186,16.0,19.0,21,0.00,,,-99.99,,2013-06-11 07:42:00,
2013-06-11 01:52:00,67.0,25.0,-100.00,South,188,16.0,19.0,20,0.00,,,-99.99,,2013-06-11 07:52:00,
2013-06-11 02:02:00,67.0,25.0,-100.00,South,188,15.0,19.0,20,0.00,,,-99.99,,2013-06-11 08:02:00,
2013-06-11 02:12:00,67.0,24.0,-100.00,South,188,16.0,19.0,19,0.00,,,-99.99,,2013-06-11 08:12:00,
2013-06-11 02:22:00,66.0,23.0,-100.00,South,188,15.0,19.0,19,0.00,,,-99.99,,2013-06-11 08:22:00,
2013-06-11 02:32:00,66.0,23.0,-100.00,South,185,15.0,18.0,19,0.00,,,-99.99,,2013-06-11 08:32:00,
2013-06-11 02:42:00,66.0,23.0,-100.00,South,182,16.0,20.0,19,0.00,,,-99.99,,2013-06-11 08:42:00,
2013-06-11 02:52:00,65.0,23.0,-100.00,South,188,17.0,20.0,20,0.00,,,-99.99,,2013-06-11 08:52:00,
2013-06-11 03:02:00,65.0,22.0,-100.00,South,188,17.0,20.0,19,0.00,,,-99.99,,2013-06-11 09:02:00,
2013-06-11 03:12:00,65.0,22.0,-100.00,South,188,17.0,20.0,19,0.00,,,-99.99,,2013-06-11 09:12:00,
2013-06-11 03:22:00,65.0,23.0,-100.00,South,186,19.0,22.0,20,0.00,,,-99.99,,2013-06-11 09:22:00,
2013-06-11 03:33:00,66.0,23.0,-100.00,South,186,19.0,22.0,20,0.00,,,-99.99,,2013-06-11 09:33:00,
2013-06-11 03:43:00,66.0,22.0,-100.00,South,186,20.0,24.0,19,0.00,,,-99.99,,2013-06-11 09:43:00,
2013-06-11 03:53:00,67.0,18.0,-100.00,South,189,19.0,22.0,16,0.00,,,-99.99,,2013-06-11 09:53:00,
2013-06-11 04:03:00,67.0,18.0,-100.00,SSW,193,17.0,21.0,15,0.00,,,-99.99,,2013-06-11 10:03:00,
2013-06-11 04:12:00,67.0,18.0,-100.00,South,189,16.0,20.0,16,0.00,,,-99.99,,2013-06-11 10:12:00,
2013-06-11 04:22:00,66.0,20.0,-100.00,South,186,17.0,21.0,17,0.00,,,-99.99,,2013-06-11 10:22:00,
2013-06-11 04:33:00,65.0,21.0,-100.00,South,185,18.0,21.0,18,0.00,,,-99.99,,2013-06-11 10:33:00,
2013-06-11 04:42:00,65.0,21.0,-100.00,South,186,19.0,23.0,18,0.00,,,-99.99,,2013-06-11 10:42:00,
2013-06-11 04:52:00,65.0,20.0,-100.00,South,188,19.0,22.0,18,0.00,,,-99.99,,2013-06-11 10:52:00,
2013-06-11 05:02:00,65.0,20.0,-100.00,South,189,19.0,22.0,17,0.00,,,-99.99,,2013-06-11 11:02:00,
2013-06-11 05:12:00,65.0,19.0,-100.00,South,189,17.0,19.0,17,0.00,,,-99.99,,2013-06-11 11:12:00,
2013-06-11 05:22:00,65.0,19.0,-100.00,South,189,16.0,18.0,17,0.00,,,-99.99,,2013-06-11 11:22:00,
2013-06-11 05:32:00,65.0,18.0,-100.00,SSW,192,16.0,19.0,16,0.00,,,-99.99,,2013-06-11 11:32:00,
2013-06-11 05:41:00,65.0,19.0,-100.00,South,191,18.0,21.0,17,0.00,,,-99.99,,2013-06-11 11:41:00,
2013-06-11 05:52:00,65.0,19.0,-100.00,South,191,18.0,21.0,17,0.00,,,-99.99,,2013-06-11 11:52:00,
2013-06-11 06:02:00,65.0,19.0,-100.00,SSW,192,19.0,22.0,17,0.00,,,-99.99,,2013-06-11 12:02:00,
2013-06-11 06:12:00,65.0,18.0,-100.00,SSW,192,19.0,22.0,16,0.00,,,-99.99,,2013-06-11 12:12:00,
2013-06-11 06:22:00,66.0,19.0,-100.00,SSW,192,20.0,24.0,16,0.00,,,-99.99,,2013-06-11 12:22:00,
2013-06-11 06:32:00,67.0,18.0,-100.00,SSW,192,21.0,26.0,15,0.00,,,-99.99,,2013-06-11 12:32:00,
2013-06-11 06:42:00,67.0,19.0,-100.00,South,191,19.0,24.0,15,0.00,,,-99.99,,2013-06-11 12:42:00,
2013-06-11 06:52:00,67.0,20.0,-100.00,South,191,18.0,23.0,16,0.00,,,-99.99,,2013-06-11 12:52:00,
2013-06-11 07:02:00,67.0,21.0,-100.00,South,188,18.0,23.0,17,0.00,,,-99.99,,2013-06-11 13:02:00,
2013-06-11 07:12:00,68.0,21.0,-100.00,South,189,21.0,29.0,17,0.00,,,-99.99,,2013-06-11 13:12:00,
2013-06-11 07:22:00,68.0,22.0,-100.00,South,191,22.0,28.0,17,0.00,,,-99.99,,2013-06-11 13:22:00,
2013-06-11 07:32:00,69.0,22.0,-100.00,South,189,22.0,30.0,17,0.00,,,-99.99,,2013-06-11 13:32:00,
2013-06-11 07:42:00,69.0,22.0,-100.00,South,188,22.0,29.0,17,0.00,,,-99.99,,2013-06-11 13:42:00,
2013-06-11 07:52:00,69.0,22.0,-100.00,South,188,21.0,28.0,17,0.00,,,-99.99,,2013-06-11 13:52:00,
2013-06-11 08:02:00,70.0,20.0,-100.00,South,188,23.0,30.0,15,0.00,,,-99.99,,2013-06-11 14:02:00,
2013-06-11 08:12:00,70.0,20.0,-100.00,South,186,23.0,30.0,15,0.00,,,-99.99,,2013-06-11 14:12:00,
2013-06-11 08:22:00,70.0,19.0,-100.00,South,189,21.0,29.0,14,0.00,,,-99.99,,2013-06-11 14:22:00,
2013-06-11 08:32:00,71.0,20.0,-100.00,South,189,22.0,31.0,14,0.00,,,-99.99,,2013-06-11 14:32:00,
2013-06-11 08:42:00,71.0,18.0,-100.00,South,191,23.0,35.0,13,0.00,,,-99.99,,2013-06-11 14:42:00,
2013-06-11 08:52:00,71.0,21.0,-100.00,SSW,193,21.0,32.0,15,0.00,,,-99.99,,2013-06-11 14:52:00,
2013-06-11 09:02:00,71.0,18.0,-100.00,SSW,198,24.0,35.0,13,0.00,,,-99.99,,2013-06-11 15:02:00,
2013-06-11 09:12:00,71.0,20.0,-100.00,SSW,202,26.0,35.0,14,0.00,,,-99.99,,2013-06-11 15:12:00,
2013-06-11 09:22:00,71.0,20.0,-100.00,SSW,200,26.0,37.0,14,0.00,,,-99.99,,2013-06-11 15:22:00,
2013-06-11 09:33:00,72.0,19.0,-100.00,SSW,206,24.0,32.0,14,0.00,,,-99.99,,2013-06-11 15:33:00,
2013-06-11 09:42:00,72.0,21.0,-100.00,SSW,198,22.0,30.0,15,0.00,,,-99.99,,2013-06-11 15:42:00,
2013-06-11 09:53:00,72.0,21.0,-100.00,SSW,202,23.0,35.0,14,0.00,,,-99.99,,2013-06-11 15:53:00,
2013-06-11 10:03:00,72.0,19.0,-100.00,SSW,212,24.0,32.0,13,0.00,,,-99.99,,2013-06-11 16:03:00,
2013-06-11 10:12:00,72.0,19.0,-100.00,SSW,209,25.0,32.0,13,0.00,,,-99.99,,2013-06-11 16:12:00,
2013-06-11 10:22:00,73.0,21.0,-100.00,SW,222,20.0,29.0,14,0.00,,,-99.99,,2013-06-11 16:22:00,
2013-06-11 10:32:00,72.0,19.0,-100.00,SW,217,23.0,32.0,13,0.00,,,-99.99,,2013-06-11 16:32:00,
2013-06-11 10:42:00,72.0,20.0,-100.00,SSW,213,24.0,34.0,14,0.00,,,-99.99,,2013-06-11 16:42:00,
2013-06-11 10:52:00,72.0,20.0,-100.00,SW,230,24.0,33.0,13,0.00,,,-99.99,,2013-06-11 16:52:00,
2013-06-11 11:02:00,73.0,19.0,-100.00,SW,232,26.0,36.0,13,0.00,,,-99.99,,2013-06-11 17:02:00,
2013-06-11 11:12:00,72.0,20.0,-100.00,WSW,240,24.0,32.0,14,0.00,,,-99.99,,2013-06-11 17:12:00,
2013-06-11 11:22:00,72.0,18.0,-100.00,SW,222,26.0,35.0,13,0.00,,,-99.99,,2013-06-11 17:22:00,
2013-06-11 11:32:00,73.0,20.0,-100.00,SW,220,24.0,35.0,13,0.00,,,-99.99,,2013-06-11 17:32:00,
2013-06-11 11:43:00,74.0,21.0,-100.00,SW,222,22.0,31.0,14,0.00,,,-99.99,,2013-06-11 17:43:00,
2013-06-11 11:52:00,73.0,20.0,-100.00,WSW,240,23.0,31.0,13,0.00,,,-99.99,,2013-06-11 17:52:00,
2013-06-11 12:02:00,73.0,20.0,-100.00,SW,232,24.0,32.0,14,0.00,,,-99.99,,2013-06-11 18:02:00,
2013-06-11 12:12:00,72.0,20.0,-100.00,WSW,239,26.0,35.0,14,0.00,,,-99.99,,2013-06-11 18:12:00,
2013-06-11 12:22:00,74.0,21.0,-100.00,WSW,237,26.0,37.0,13,0.00,,,-99.99,,2013-06-11 18:22:00,
2013-06-11 12:32:00,72.0,20.0,-100.00,SW,226,21.0,30.0,14,0.00,,,-99.99,,2013-06-11 18:32:00,
2013-06-11 12:42:00,73.0,22.0,-100.00,SW,226,17.0,28.0,14,0.00,,,-99.99,,2013-06-11 18:42:00,
2013-06-11 12:52:00,74.0,21.0,-100.00,SW,215,19.0,27.0,14,0.00,,,-99.99,,2013-06-11 18:52:00,
2013-06-11 13:02:00,74.0,19.0,-100.00,SW,234,20.0,30.0,12,0.00,,,-99.99,,2013-06-11 19:02:00,
2013-06-11 13:12:00,75.0,19.0,-100.00,SW,226,22.0,30.0,12,0.00,,,-99.99,,2013-06-11 19:12:00,
2013-06-11 13:22:00,74.0,20.0,-100.00,SSW,199,25.0,36.0,13,0.00,,,-99.99,,2013-06-11 19:22:00,
2013-06-11 13:32:00,74.0,19.0,-100.00,SSW,206,24.0,32.0,12,0.00,,,-99.99,,2013-06-11 19:32:00,
2013-06-11 13:42:00,75.0,19.0,-100.00,SSW,200,27.0,37.0,12,0.00,,,-99.99,,2013-06-11 19:42:00,
2013-06-11 13:52:00,75.0,20.0,-100.00,SW,222,26.0,37.0,13,0.00,,,-99.99,,2013-06-11 19:52:00,
2013-06-11 14:02:00,75.0,20.0,-100.00,SSW,212,28.0,42.0,12,0.00,,,-99.99,,2013-06-11 20:02:00,
2013-06-11 14:12:00,76.0,20.0,-100.00,SSW,209,26.0,37.0,12,0.00,,,-99.99,,2013-06-11 20:12:00,
2013-06-11 14:22:00,75.0,20.0,-100.00,SSW,208,27.0,41.0,13,0.00,,,-99.99,,2013-06-11 20:22:00,
2013-06-11 14:32:00,76.0,21.0,-100.00,SW,226,26.0,39.0,13,0.00,,,-99.99,,2013-06-11 20:32:00,
2013-06-11 14:42:00,75.0,22.0,-100.00,SSW,205,21.0,37.0,13,0.00,,,-99.99,,2013-06-11 20:42:00,
2013-06-11 14:52:00,75.0,20.0,-100.00,SSW,212,28.0,39.0,12,0.00,,,-99.99,,2013-06-11 20:52:00,
2013-06-11 15:02:00,76.0,22.0,-100.00,SSW,209,26.0,40.0,13,0.00,,,-99.99,,2013-06-11 21:02:00,
2013-06-11 15:12:00,75.0,22.0,-100.00,SW,232,21.0,29.0,14,0.00,,,-99.99,,2013-06-11 21:12:00,
2013-06-11 15:22:00,75.0,21.0,-100.00,SW,215,22.0,35.0,13,0.00,,,-99.99,,2013-06-11 21:22:00,
2013-06-11 15:33:00,76.0,22.0,-100.00,SW,216,25.0,34.0,13,0.00,,,-99.99,,2013-06-11 21:33:00,
2013-06-11 15:42:00,75.0,21.0,-100.00,SW,219,22.0,32.0,13,0.00,,,-99.99,,2013-06-11 21:42:00,
2013-06-11 15:52:00,76.0,22.0,-100.00,SSW,205,21.0,30.0,14,0.00,,,-99.99,,2013-06-11 21:52:00,
2013-06-11 16:03:00,74.0,22.0,-100.00,SSW,210,24.0,33.0,14,0.00,,,-99.99,,2013-06-11 22:03:00,
2013-06-11 16:12:00,74.0,21.0,-100.00,SW,220,24.0,35.0,14,0.00,,,-99.99,,2013-06-11 22:12:00,
2013-06-11 16:22:00,74.0,22.0,-100.00,SW,220,23.0,35.0,14,0.00,,,-99.99,,2013-06-11 22:22:00,
2013-06-11 16:32:00,76.0,22.0,-100.00,SSW,209,23.0,37.0,13,0.00,,,-99.99,,2013-06-11 22:32:00,
2013-06-11 16:42:00,75.0,21.0,-100.00,SW,219,29.0,47.0,13,0.00,,,-99.99,,2013-06-11 22:42:00,
2013-06-11 16:52:00,76.0,20.0,-100.00,SW,227,27.0,40.0,12,0.00,,,-99.99,,2013-06-11 22:52:00,
2013-06-11 17:02:00,74.0,20.0,-100.00,SW,232,27.0,40.0,13,0.00,,,-99.99,,2013-06-11 23:02:00,
2013-06-11 17:12:00,74.0,21.0,-100.00,SW,226,29.0,41.0,13,0.00,,,-99.99,,2013-06-11 23:12:00,
2013-06-11 17:22:00,74.0,21.0,-100.00,SW,227,27.0,40.0,13,0.00,,,-99.99,,2013-06-11 23:22:00,
2013-06-11 17:32:00,72.0,21.0,-100.00,SW,219,26.0,35.0,14,0.00,,,-99.99,,2013-06-11 23:32:00,
2013-06-11 17:42:00,72.0,22.0,-100.00,SW,220,27.0,40.0,15,0.00,,,-99.99,,2013-06-11 23:42:00,
2013-06-11 17:52:00,73.0,21.0,-100.00,SW,229,26.0,40.0,14,0.00,,,-99.99,,2013-06-11 23:52:00,
2013-06-11 18:02:00,72.0,21.0,-100.00,SW,224,27.0,35.0,15,0.00,,,-99.99,,2013-06-12 00:02:00,
2013-06-11 18:12:00,72.0,20.0,-100.00,SW,229,24.0,37.0,14,0.00,,,-99.99,,2013-06-12 00:12:00,
2013-06-11 18:22:00,71.0,21.0,-100.00,SW,229,27.0,37.0,15,0.00,,,-99.99,,2013-06-12 00:22:00,
2013-06-11 18:32:00,72.0,20.0,-100.00,SW,236,24.0,40.0,14,0.00,,,-99.99,,2013-06-12 00:32:00,
2013-06-11 18:42:00,72.0,20.0,-100.00,WSW,241,32.0,40.0,14,0.00,,,-99.99,,2013-06-12 00:42:00,
2013-06-11 18:52:00,70.0,20.0,-100.00,WSW,244,27.0,37.0,14,0.00,,,-99.99,,2013-06-12 00:52:00,
2013-06-11 19:02:00,71.0,19.0,-100.00,WSW,244,27.0,36.0,14,0.00,,,-99.99,,2013-06-12 01:02:00,
2013-06-11 19:12:00,71.0,19.0,-100.00,WSW,246,26.0,34.0,14,0.00,,,-99.99,,2013-06-12 01:12:00,
2013-06-11 19:22:00,71.0,19.0,-100.00,WSW,253,29.0,38.0,14,0.00,,,-99.99,,2013-06-12 01:22:00,
2013-06-11 19:32:00,70.0,19.0,-100.00,WSW,256,28.0,37.0,14,0.00,,,-99.99,,2013-06-12 01:32:00,
2013-06-11 19:42:00,70.0,18.0,-100.00,WSW,244,23.0,33.0,14,0.00,,,-99.99,,2013-06-12 01:42:00,
2013-06-11 19:52:00,69.0,19.0,-100.00,WSW,246,22.0,32.0,14,0.00,,,-99.99,,2013-06-12 01:52:00,
2013-06-11 20:02:00,69.0,18.0,-100.00,WSW,246,21.0,31.0,14,0.00,,,-99.99,,2013-06-12 02:02:00,
2013-06-11 20:12:00,69.0,17.0,-100.00,WSW,243,22.0,33.0,14,0.00,,,-99.99,,2013-06-12 02:12:00,
2013-06-11 20:22:00,68.0,17.0,-100.00,WSW,239,22.0,34.0,14,0.00,,,-99.99,,2013-06-12 02:22:00,
2013-06-11 20:32:00,67.0,17.0,-100.00,SW,236,19.0,28.0,14,0.00,,,-99.99,,2013-06-12 02:32:00,
2013-06-11 20:42:00,67.0,18.0,-100.00,WSW,237,21.0,27.0,15,0.00,,,-99.99,,2013-06-12 02:42:00,
2013-06-11 20:52:00,65.0,17.0,-100.00,WSW,240,17.0,24.0,15,0.00,,,-99.99,,2013-06-12 02:52:00,
2013-06-11 21:02:00,64.0,18.0,-100.00,SW,233,16.0,22.0,16,0.00,,,-99.99,,2013-06-12 03:02:00,
2013-06-11 21:12:00,64.0,18.0,-100.00,SW,236,17.0,22.0,17,0.00,,,-99.99,,2013-06-12 03:12:00,
2013-06-11 21:22:00,63.0,16.0,-100.00,SW,234,17.0,21.0,16,0.00,,,-99.99,,2013-06-12 03:22:00,
2013-06-11 21:32:00,63.0,16.0,-100.00,WSW,239,16.0,23.0,16,0.00,,,-99.99,,2013-06-12 03:32:00,
2013-06-11 21:42:00,63.0,16.0,-100.00,SW,234,17.0,21.0,16,0.00,,,-99.99,,2013-06-12 03:42:00,
2013-06-11 21:53:00,63.0,16.0,-100.00,SW,232,17.0,23.0,16,0.00,,,-99.99,,2013-06-12 03:53:00,
2013-06-11 22:03:00,63.0,17.0,-100.00,SW,230,19.0,24.0,16,0.00,,,-99.99,,2013-06-12 04:03:00,
2013-06-11 22:13:00,63.0,17.0,-100.00,SW,232,19.0,24.0,17,0.00,,,-99.99,,2013-06-12 04:13:00,
2013-06-11 22:23:00,63.0,18.0,-100.00,SW,234,19.0,26.0,17,0.00,,,-99.99,,2013-06-12 04:23:00,
2013-06-11 22:33:00,63.0,18.0,-100.00,SW,232,21.0,29.0,18,0.00,,,-99.99,,2013-06-12 04:33:00,
2013-06-11 22:42:00,63.0,19.0,-100.00,SW,232,21.0,26.0,18,0.00,,,-99.99,,2013-06-12 04:42:00,
2013-06-11 22:52:00,62.0,19.0,-100.00,SW,230,19.0,24.0,19,0.00,,,-99.99,,2013-06-12 04:52:00,
2013-06-11 23:03:00,62.0,20.0,-100.00,SW,230,19.0,26.0,20,0.00,,,-99.99,,2013-06-12 05:03:00,
2013-06-11 23:12:00,61.0,20.0,-100.00,SW,230,19.0,26.0,20,0.00,,,-99.99,,2013-06-12 05:12:00,
2013-06-11 23:22:00,61.0,21.0,-100.00,SW,230,18.0,24.0,21,0.00,,,-99.99,,2013-06-12 05:22:00,
2013-06-11 23:32:00,61.0,21.0,-100.00,SW,232,17.0,22.0,21,0.00,,,-99.99,,2013-06-12 05:32:00,
2013-06-11 23:42:00,60.0,21.0,-100.00,SW,229,17.0,24.0,22,0.00,,,-99.99,,2013-06-12 05:42:00,
2013-06-11 23:52:00,60.0,21.0,-100.00,SW,227,17.0,24.0,22,0.00,,,-99.99,,2013-06-12 05:52:00,